Location: Edoum�
(0.9447°N, 10.6482°E)
Time: 07:46:13
(UTC+00:00)

Ariane 3 Deb - Pass Details

Date: 10 October 2020
Orbit: 229 x 18408 km, 6.8° (Epoch: 21 October)

Event Time Altitude Azimuth Distance (km) Brightness Sun altitude
Exits shadow 01:24:30 25° 72° (ENE) 2,867 6.1 -54.6°
Drops below altitude 10° 01:32:08 10° 82° (E) 6,076 8.0 -52.7°
Sets 01:43:31 0° 86° (E) 10,133 9.3 -49.9°
